contact:dominique.lefevre@mio.osupytheas.fr, maurice.libes@osupytheas.fr, didier.mallarino@osupytheas.fr
Project:EMSO http://www.emso-fr.org/EMSO-France
Depth: 2436.0 m
Title:EMSO Ligure Ouest : Data MII capteur AQUADOPP
Date,Latitude,Longitude,X_East,Y_North,Z_Up,Amplitude_X,Amplitude_Y,Amplitude_Z,Batterie,SoundSpeed,Heading,Pitch,Roll,Pressure,TIS,Speed,Direction
, degrees North, degrees East, m.s-1, m.s-1,m.s-1, 1, 1, 1, Volt, m.s-1, degree, degree, degree, dbar, degree_C, m.s-1, degree
2023-07-21T00:04:03,42.805,6.029,-0.007,-0.001,-0.038,102.0,102.0,101.0,13.4,1505.2,352.8,-0.8,1.8,2471.459,13.29,0.007,261.9
2023-07-21T00:07:03,42.805,6.029,-0.013,0.002,-0.054,102.0,102.0,101.0,13.3,1505.2,332.1,-0.8,1.8,2471.486,13.29,0.013,278.7
2023-07-21T00:10:03,42.805,6.029,-0.019,-0.004,-0.051,103.0,102.0,101.0,13.4,1505.2,321.9,-0.8,1.8,2471.498,13.29,0.019,258.1
2023-07-21T00:13:03,42.805,6.029,-0.026,-0.004,-0.035,103.0,104.0,100.0,13.4,1505.2,340.8,-0.7,1.8,2471.486,13.29,0.026,261.3
2023-07-21T00:16:03,42.805,6.029,0.004,-0.006,-0.058,102.0,102.0,101.0,13.4,1505.2,334.8,-0.8,1.8,2471.459,13.29,0.007,146.3
2023-07-21T00:19:03,42.805,6.029,-0.01,0.007,-0.023,102.0,102.0,101.0,13.4,1505.2,344.4,-0.8,1.8,2471.436,13.29,0.012,305.0
2023-07-21T00:22:03,42.805,6.029,-0.024,0.014,-0.028,102.0,102.0,101.0,13.3,1505.2,354.4,-0.8,1.8,2471.451,13.29,0.027,300.3
2023-07-21T00:25:03,42.805,6.029,-0.025,0.003,-0.061,102.0,103.0,101.0,13.3,1505.2,353.0,-0.7,1.8,2471.423,13.29,0.025,276.8
2023-07-21T00:28:03,42.805,6.029,-0.029,0.003,-0.047,101.0,102.0,101.0,13.4,1505.2,331.7,-0.8,1.8,2471.455,13.29,0.029,275.9
2023-07-21T00:31:03,42.805,6.029,0.0,0.002,-0.035,101.0,101.0,101.0,13.4,1505.2,340.6,-0.8,1.8,2471.442,13.29,0.002,0.0
2023-07-21T00:34:03,42.805,6.029,-0.008,0.002,-0.015,101.0,101.0,102.0,13.3,1505.2,337.0,-0.8,1.8,2471.448,13.29,0.008,284.0
2023-07-21T00:37:03,42.805,6.029,0.001,0.01,-0.027,102.0,102.0,100.0,13.4,1505.2,341.5,-0.8,1.8,2471.436,13.29,0.01,5.7
2023-07-21T00:40:03,42.805,6.029,-0.032,0.013,-0.039,102.0,102.0,101.0,13.4,1505.2,343.4,-0.8,1.8,2471.411,13.29,0.034,292.1
2023-07-21T00:43:03,42.805,6.029,0.008,-0.012,-0.045,102.0,102.0,102.0,13.3,1505.2,341.2,-0.7,1.8,2471.435,13.29,0.014,146.3
2023-07-21T00:46:03,42.805,6.029,0.01,-0.008,-0.054,102.0,102.0,101.0,13.3,1505.2,354.5,-0.8,1.8,2471.457,13.29,0.012,128.7
2023-07-21T00:49:03,42.805,6.029,-0.014,-0.01,-0.04,102.0,101.0,101.0,13.3,1505.2,329.9,-0.8,1.8,2471.431,13.29,0.017,234.5
2023-07-21T00:52:03,42.805,6.029,0.0,-0.004,0.011,102.0,102.0,100.0,13.3,1505.2,324.8,-0.8,1.8,2471.423,13.29,0.004,180.0
2023-07-21T00:55:03,42.805,6.029,-0.035,0.016,0.008,102.0,102.0,100.0,13.4,1505.2,326.0,-0.7,1.8,2471.409,13.29,0.038,294.6
2023-07-21T00:58:03,42.805,6.029,-0.013,0.004,-0.014,103.0,102.0,100.0,13.3,1505.2,334.2,-0.8,1.8,2471.385,13.29,0.013,287.1
2023-07-21T01:04:03,42.805,6.029,-0.005,-0.002,-0.037,103.0,102.0,103.0,13.3,1505.2,347.0,-0.8,1.8,2471.464,13.29,0.005,248.2
2023-07-21T01:07:03,42.805,6.029,-0.001,-0.011,-0.044,103.0,101.0,100.0,13.4,1505.2,323.9,-0.8,1.8,2471.449,13.29,0.011,185.2
2023-07-21T01:10:03,42.805,6.029,-0.046,0.02,-0.026,100.0,102.0,101.0,13.4,1505.2,338.6,-0.7,1.8,2471.436,13.29,0.05,293.5
2023-07-21T01:13:03,42.805,6.029,-0.021,0.014,-0.04,102.0,101.0,100.0,13.4,1505.2,326.5,-0.8,1.8,2471.431,13.29,0.025,303.7
2023-07-21T01:16:03,42.805,6.029,-0.044,0.01,-0.035,100.0,103.0,101.0,13.4,1505.2,329.7,-0.8,1.8,2471.416,13.29,0.045,282.8
2023-07-21T01:19:03,42.805,6.029,-0.02,0.003,-0.018,102.0,102.0,100.0,13.4,1505.2,343.3,-0.8,1.8,2471.442,13.29,0.02,278.5
2023-07-21T01:22:02,42.805,6.029,-0.026,0.005,-0.031,103.0,100.0,102.0,13.4,1505.2,343.0,-0.8,1.8,2471.4,13.29,0.026,280.9
2023-07-21T01:25:03,42.805,6.029,-0.021,-0.009,-0.068,102.0,102.0,101.0,13.4,1505.2,349.1,-0.8,1.8,2471.441,13.29,0.022,246.8
2023-07-21T01:28:03,42.805,6.029,-0.003,0.0,-0.021,103.0,100.0,102.0,13.3,1505.2,341.5,-0.8,1.8,2471.425,13.29,0.003,270.0
2023-07-21T01:31:03,42.805,6.029,-0.006,-0.014,-0.046,102.0,103.0,100.0,13.4,1505.2,332.9,-0.8,1.8,2471.413,13.29,0.015,203.2
2023-07-21T01:34:03,42.805,6.029,-0.011,0.01,-0.062,101.0,102.0,102.0,13.3,1505.2,352.0,-0.8,1.8,2471.423,13.29,0.014,312.3
2023-07-21T01:37:03,42.805,6.029,-0.024,0.005,-0.024,102.0,102.0,101.0,13.4,1505.2,325.7,-0.7,1.8,2471.389,13.29,0.024,281.8
2023-07-21T01:40:03,42.805,6.029,-0.002,-0.011,-0.057,102.0,101.0,100.0,13.4,1505.2,332.4,-0.8,1.8,2471.406,13.29,0.011,190.3
2023-07-21T01:43:03,42.805,6.029,-0.011,-0.014,-0.028,103.0,101.0,101.0,13.4,1505.2,329.2,-0.7,1.8,2471.409,13.29,0.017,218.2
2023-07-21T01:46:03,42.805,6.029,-0.01,0.012,-0.049,101.0,102.0,101.0,13.4,1505.2,342.5,-0.8,1.8,2471.377,13.29,0.015,320.2
2023-07-21T01:49:03,42.805,6.029,-0.028,-0.007,-0.048,100.0,102.0,102.0,13.4,1505.2,331.9,-0.8,1.8,2471.389,13.29,0.028,256.0
2023-07-21T01:52:03,42.805,6.029,-0.008,-0.003,-0.04,102.0,103.0,100.0,13.4,1505.2,329.5,-0.8,1.8,2471.363,13.29,0.008,249.4
2023-07-21T01:55:03,42.805,6.029,-0.015,-0.008,-0.058,102.0,102.0,101.0,13.4,1505.2,329.6,-0.8,1.8,2471.395,13.29,0.017,241.9
2023-07-21T01:58:03,42.805,6.029,-0.019,0.0,-0.049,102.0,101.0,101.0,13.4,1505.2,325.3,-0.8,1.8,2471.373,13.29,0.019,270.0
2023-07-21T02:04:03,42.805,6.029,-0.038,-0.008,-0.06,102.0,102.0,103.0,13.3,1505.2,337.6,-0.8,1.8,2471.448,13.29,0.038,258.1
2023-07-21T02:07:03,42.805,6.029,-0.007,-0.035,-0.052,101.0,102.0,101.0,13.4,1505.2,338.2,-0.8,1.8,2471.416,13.29,0.035,191.3
2023-07-21T02:10:03,42.805,6.029,-0.007,-0.014,-0.034,103.0,101.0,101.0,13.3,1505.2,352.6,-0.8,1.8,2471.389,13.29,0.015,206.6
2023-07-21T02:13:03,42.805,6.029,-0.022,0.0,-0.027,102.0,101.0,100.0,13.4,1505.2,335.0,-0.8,1.8,2471.402,13.29,0.022,270.0
2023-07-21T02:16:03,42.805,6.029,-0.005,0.012,-0.047,103.0,100.0,101.0,13.4,1505.2,342.6,-0.7,1.8,2471.372,13.29,0.013,337.4
2023-07-21T02:19:03,42.805,6.029,-0.002,0.013,-0.041,103.0,100.0,100.0,13.4,1505.2,353.0,-0.7,1.8,2471.373,13.29,0.013,351.3
2023-07-21T02:22:03,42.805,6.029,-0.006,-0.01,-0.056,101.0,102.0,101.0,13.4,1505.2,326.6,-0.7,1.8,2471.365,13.29,0.011,211.0
2023-07-21T02:25:03,42.805,6.029,0.004,-0.001,-0.007,102.0,100.0,101.0,13.4,1505.2,345.9,-0.8,1.9,2471.392,13.29,0.004,104.0
2023-07-21T02:28:03,42.805,6.029,-0.005,-0.006,-0.054,101.0,101.0,102.0,13.3,1505.2,354.4,-0.8,1.9,2471.377,13.29,0.007,219.8
2023-07-21T02:31:03,42.805,6.029,-0.022,0.009,-0.014,101.0,103.0,101.0,13.4,1505.2,334.2,-0.8,1.8,2471.41,13.29,0.023,292.2
2023-07-21T02:34:03,42.805,6.029,-0.029,0.005,-0.028,102.0,101.0,101.0,13.4,1505.2,344.8,-0.7,1.8,2471.356,13.29,0.029,279.8
2023-07-21T02:37:03,42.805,6.029,0.008,-0.025,-0.039,102.0,101.0,100.0,13.3,1505.2,335.4,-0.8,1.8,2471.348,13.29,0.026,162.3
2023-07-21T02:40:03,42.805,6.029,-0.005,-0.015,-0.051,102.0,102.0,100.0,13.4,1505.2,354.5,-0.8,1.8,2471.345,13.29,0.015,198.4
2023-07-21T02:43:03,42.805,6.029,0.004,0.009,-0.021,102.0,102.0,101.0,13.4,1505.2,332.0,-0.8,1.8,2471.353,13.29,0.009,24.0
2023-07-21T02:46:03,42.805,6.029,0.0,-0.008,-0.05,102.0,101.0,100.0,13.3,1505.2,351.7,-0.8,1.8,2471.326,13.29,0.008,180.0
2023-07-21T02:49:03,42.805,6.029,-0.03,0.003,-0.024,101.0,102.0,101.0,13.4,1505.2,327.1,-0.7,1.8,2471.364,13.29,0.03,275.7
2023-07-21T02:52:03,42.805,6.029,-0.021,-0.003,-0.036,103.0,102.0,100.0,13.4,1505.2,353.5,-0.8,1.8,2471.363,13.29,0.021,261.9
2023-07-21T02:55:03,42.805,6.029,-0.004,-0.005,0.003,101.0,102.0,100.0,13.4,1505.2,353.4,-0.8,1.8,2471.386,13.29,0.006,218.7
2023-07-21T02:58:03,42.805,6.029,-0.013,-0.005,-0.037,102.0,101.0,101.0,13.3,1505.2,352.8,-0.8,1.8,2471.354,13.29,0.013,249.0
2023-07-21T03:04:03,42.805,6.029,-0.029,0.021,-0.034,103.0,102.0,99.0,13.4,1505.2,344.8,-0.8,1.8,2471.387,13.28,0.035,305.9
2023-07-21T03:07:03,42.805,6.029,-0.016,0.012,-0.01,102.0,102.0,101.0,13.4,1505.2,333.4,-0.8,1.8,2471.421,13.29,0.02,306.9
2023-07-21T03:10:03,42.805,6.029,-0.019,-0.005,-0.04,102.0,101.0,101.0,13.4,1505.2,325.5,-0.8,1.8,2471.368,13.29,0.019,255.3
2023-07-21T03:13:03,42.805,6.029,-0.001,0.006,-0.024,104.0,101.0,101.0,13.4,1505.2,340.2,-0.7,1.9,2471.355,13.29,0.006,350.5
2023-07-21T03:16:03,42.805,6.029,0.001,-0.022,-0.059,102.0,101.0,101.0,13.4,1505.2,345.6,-0.8,1.8,2471.353,13.29,0.022,177.4
2023-07-21T03:19:03,42.805,6.029,-0.008,-0.028,-0.043,100.0,102.0,101.0,13.3,1505.2,330.5,-0.8,1.8,2471.328,13.29,0.029,195.9
2023-07-21T03:22:03,42.805,6.029,-0.002,0.016,-0.005,103.0,101.0,101.0,13.4,1505.2,343.7,-0.7,1.8,2471.35,13.29,0.016,352.9
2023-07-21T03:25:03,42.805,6.029,-0.01,-0.013,-0.031,101.0,102.0,102.0,13.3,1505.2,332.9,-0.8,1.8,2471.366,13.29,0.016,217.6
2023-07-21T03:28:03,42.805,6.029,-0.02,-0.017,-0.064,104.0,102.0,100.0,13.4,1505.2,349.9,-0.8,1.8,2471.337,13.29,0.026,229.6
2023-07-21T03:31:03,42.805,6.029,-0.014,0.011,-0.046,101.0,102.0,100.0,13.3,1505.2,351.5,-0.8,1.8,2471.38,13.29,0.017,308.2
2023-07-21T03:34:03,42.805,6.029,0.007,0.001,-0.014,104.0,100.0,101.0,13.4,1505.2,337.1,-0.7,1.8,2471.326,13.29,0.007,81.9
2023-07-21T03:37:03,42.805,6.029,-0.013,0.0,-0.038,102.0,102.0,100.0,13.3,1505.2,342.8,-0.7,1.8,2471.35,13.29,0.013,270.0
2023-07-21T03:40:03,42.805,6.029,-0.004,-0.004,-0.027,102.0,102.0,101.0,13.4,1505.2,334.7,-0.8,1.8,2471.355,13.29,0.005,225.0
2023-07-21T03:43:03,42.805,6.029,0.014,-0.002,-0.036,102.0,102.0,101.0,13.4,1505.2,343.3,-0.8,1.8,2471.351,13.29,0.014,98.1
2023-07-21T03:46:03,42.805,6.029,-0.009,-0.008,0.004,102.0,102.0,102.0,13.4,1505.2,322.5,-0.7,1.8,2471.332,13.29,0.012,228.4
2023-07-21T03:49:03,42.805,6.029,-0.012,0.005,-0.002,102.0,101.0,101.0,13.4,1505.2,325.3,-0.8,1.8,2471.346,13.29,0.013,292.6
2023-07-21T03:52:03,42.805,6.029,-0.038,0.015,-0.045,102.0,102.0,100.0,13.4,1505.2,325.4,-0.8,1.8,2471.359,13.29,0.04,291.5
2023-07-21T03:55:03,42.805,6.029,-0.022,0.01,-0.011,102.0,100.0,102.0,13.4,1505.2,332.4,-0.8,1.8,2471.339,13.29,0.024,294.4
2023-07-21T03:58:03,42.805,6.029,-0.023,-0.006,-0.023,102.0,101.0,101.0,13.3,1505.2,332.5,-0.8,1.8,2471.322,13.29,0.023,255.4
2023-07-21T04:04:03,42.805,6.029,-0.009,-0.015,-0.038,102.0,103.0,101.0,13.4,1505.2,353.0,-0.8,1.8,2471.397,13.29,0.017,211.0
2023-07-21T04:07:03,42.805,6.029,-0.024,0.0,-0.034,102.0,102.0,101.0,13.4,1505.2,330.8,-0.8,1.8,2471.398,13.29,0.024,270.0
2023-07-21T04:10:03,42.805,6.029,-0.024,-0.018,-0.081,102.0,100.0,101.0,13.4,1505.2,338.2,-0.7,1.8,2471.386,13.29,0.03,233.1
2023-07-21T04:13:03,42.805,6.029,-0.015,-0.009,-0.024,101.0,102.0,101.0,13.4,1505.2,343.5,-0.8,1.8,2471.397,13.29,0.017,239.0
2023-07-21T04:16:03,42.805,6.029,-0.007,0.0,-0.016,101.0,102.0,101.0,13.3,1505.2,346.2,-0.7,1.8,2471.32,13.29,0.007,270.0
2023-07-21T04:19:03,42.805,6.029,-0.012,-0.011,-0.049,102.0,101.0,101.0,13.3,1505.2,326.3,-0.7,1.8,2471.356,13.29,0.016,227.5
2023-07-21T04:22:03,42.805,6.029,-0.02,-0.012,-0.061,102.0,102.0,101.0,13.4,1505.2,324.0,-0.8,1.8,2471.358,13.29,0.023,239.0
2023-07-21T04:25:03,42.805,6.029,-0.018,0.0,-0.01,102.0,102.0,100.0,13.3,1505.2,330.5,-0.8,1.8,2471.402,13.29,0.018,270.0
2023-07-21T04:28:03,42.805,6.029,-0.043,0.005,-0.056,102.0,101.0,101.0,13.4,1505.2,322.5,-0.8,1.8,2471.329,13.29,0.043,276.6
2023-07-21T04:31:03,42.805,6.029,-0.002,0.007,-0.016,101.0,102.0,101.0,13.3,1505.2,345.2,-0.7,1.8,2471.302,13.29,0.007,344.1
2023-07-21T04:34:03,42.805,6.029,0.01,-0.025,-0.046,102.0,102.0,102.0,13.3,1505.2,328.8,-0.8,1.8,2471.348,13.29,0.026,158.2
2023-07-21T04:37:03,42.805,6.029,-0.016,0.015,-0.039,103.0,102.0,101.0,13.4,1505.2,348.6,-0.7,1.8,2471.31,13.29,0.021,313.1
2023-07-21T04:40:03,42.805,6.029,-0.011,-0.006,-0.024,101.0,102.0,100.0,13.4,1505.2,322.3,-0.8,1.8,2471.346,13.29,0.012,241.4
2023-07-21T04:43:03,42.805,6.029,0.002,-0.007,-0.036,102.0,102.0,100.0,13.4,1505.2,342.3,-0.7,1.8,2471.358,13.29,0.007,164.1
2023-07-21T04:46:03,42.805,6.029,-0.021,0.009,-0.031,102.0,102.0,102.0,13.4,1505.2,330.5,-0.8,1.8,2471.356,13.29,0.022,293.2
2023-07-21T04:49:03,42.805,6.029,-0.015,-0.007,-0.035,102.0,102.0,102.0,13.3,1505.2,332.4,-0.7,1.8,2471.319,13.29,0.016,245.0
2023-07-21T04:52:03,42.805,6.029,-0.011,-0.023,-0.017,103.0,101.0,102.0,13.4,1505.2,342.5,-0.8,1.8,2471.359,13.29,0.025,205.6
2023-07-21T04:55:03,42.805,6.029,-0.047,0.002,-0.059,102.0,103.0,101.0,13.4,1505.2,343.7,-0.8,1.8,2471.371,13.29,0.047,272.4
2023-07-21T04:58:03,42.805,6.029,-0.004,-0.006,-0.023,101.0,103.0,101.0,13.4,1505.2,322.7,-0.7,1.8,2471.337,13.29,0.007,213.7
2023-07-21T05:04:03,42.805,6.029,-0.011,-0.004,-0.012,102.0,103.0,101.0,13.3,1505.2,332.5,-0.8,1.8,2471.365,13.29,0.011,250.0
2023-07-21T05:07:03,42.805,6.029,-0.023,0.018,-0.019,105.0,102.0,100.0,13.4,1505.2,345.6,-0.8,1.8,2471.403,13.29,0.029,308.0
2023-07-21T05:10:03,42.805,6.029,-0.013,-0.021,-0.052,101.0,101.0,102.0,13.4,1505.2,329.0,-0.8,1.8,2471.385,13.29,0.024,211.8
2023-07-21T05:13:03,42.805,6.029,-0.006,0.003,-0.03,103.0,102.0,101.0,13.4,1505.2,338.2,-0.8,1.8,2471.378,13.29,0.006,296.6
2023-07-21T05:16:03,42.805,6.029,-0.015,-0.002,-0.009,103.0,100.0,102.0,13.3,1505.2,327.0,-0.8,1.8,2471.363,13.29,0.015,262.4
2023-07-21T05:19:03,42.805,6.029,-0.039,0.018,-0.056,102.0,102.0,101.0,13.3,1505.2,351.8,-0.8,1.8,2471.343,13.29,0.042,294.8
2023-07-21T05:22:03,42.805,6.029,-0.02,-0.006,-0.044,102.0,102.0,101.0,13.4,1505.2,335.4,-0.8,1.8,2471.369,13.29,0.02,253.3
2023-07-21T05:25:03,42.805,6.029,-0.005,0.004,-0.045,102.0,103.0,102.0,13.4,1505.2,350.3,-0.8,1.8,2471.36,13.29,0.006,308.7
2023-07-21T05:28:03,42.805,6.029,-0.005,-0.002,-0.022,102.0,102.0,101.0,13.3,1505.2,325.5,-0.7,1.8,2471.362,13.29,0.005,248.2
2023-07-21T05:31:03,42.805,6.029,-0.001,-0.005,0.007,103.0,102.0,101.0,13.3,1505.2,329.8,-0.7,1.8,2471.347,13.29,0.005,191.3
2023-07-21T05:34:03,42.805,6.029,-0.024,0.015,-0.042,102.0,101.0,102.0,13.4,1505.2,350.5,-0.7,1.8,2471.387,13.29,0.028,302.0
2023-07-21T05:37:03,42.805,6.029,-0.004,-0.017,-0.045,102.0,102.0,100.0,13.4,1505.2,324.6,-0.8,1.8,2471.38,13.29,0.017,193.2
2023-07-21T05:40:03,42.805,6.029,-0.003,-0.004,-0.04,104.0,102.0,101.0,13.4,1505.2,347.9,-0.8,1.8,2471.34,13.29,0.005,216.9
2023-07-21T05:43:03,42.805,6.029,-0.01,-0.011,-0.047,103.0,102.0,101.0,13.3,1505.2,328.5,-0.8,1.8,2471.34,13.29,0.014,222.3
2023-07-21T05:46:03,42.805,6.029,-0.006,-0.013,-0.039,103.0,101.0,101.0,13.3,1505.2,332.9,-0.7,1.8,2471.382,13.29,0.014,204.8
2023-07-21T05:49:03,42.805,6.029,0.0,0.0,0.0,102.0,106.0,101.0,13.4,1505.2,332.4,-0.8,1.8,2471.347,13.29,0.0,0.0
2023-07-21T05:52:03,42.805,6.029,-0.023,-0.017,-0.052,102.0,102.0,101.0,13.3,1505.2,337.2,-0.7,1.8,2471.377,13.29,0.028,233.5
2023-07-21T05:55:03,42.805,6.029,0.016,-0.038,-0.08,103.0,103.0,100.0,13.3,1505.2,343.3,-0.8,1.8,2471.368,13.29,0.041,157.2
2023-07-21T05:58:03,42.805,6.029,-0.03,-0.004,-0.03,104.0,99.0,103.0,13.4,1505.2,340.9,-0.8,1.8,2471.35,13.29,0.03,262.4
2023-07-21T06:04:03,42.805,6.029,0.0,-0.01,-0.059,102.0,101.0,101.0,13.4,1505.2,333.8,-0.7,1.8,2471.419,13.29,0.01,180.0
2023-07-21T06:07:03,42.805,6.029,-0.013,0.004,-0.041,102.0,101.0,101.0,13.4,1505.2,346.5,-0.8,1.8,2471.401,13.29,0.013,287.1
2023-07-21T06:10:03,42.805,6.029,0.002,-0.002,-0.029,101.0,102.0,102.0,13.4,1505.2,333.9,-0.8,1.9,2471.392,13.29,0.002,135.0
2023-07-21T06:13:03,42.805,6.029,-0.01,0.002,-0.054,102.0,104.0,101.0,13.3,1505.2,333.0,-0.8,1.8,2471.365,13.29,0.01,281.3
2023-07-21T06:16:03,42.805,6.029,-0.018,0.012,-0.011,102.0,101.0,101.0,13.4,1505.2,329.3,-0.8,1.8,2471.358,13.29,0.021,303.7
2023-07-21T06:19:03,42.805,6.029,0.004,-0.008,-0.014,102.0,101.0,101.0,13.3,1505.2,323.4,-0.8,1.8,2471.397,13.29,0.008,153.4
2023-07-21T06:22:03,42.805,6.029,-0.006,0.01,-0.034,102.0,101.0,102.0,13.4,1505.2,348.4,-0.8,1.9,2471.388,13.29,0.011,329.0
2023-07-21T06:25:03,42.805,6.029,-0.021,0.021,-0.02,102.0,101.0,101.0,13.3,1505.2,338.2,-0.8,1.8,2471.37,13.29,0.029,315.0
2023-07-21T06:28:03,42.805,6.029,-0.013,0.009,-0.03,101.0,102.0,101.0,13.4,1505.2,326.0,-0.8,1.8,2471.36,13.29,0.015,304.7
2023-07-21T06:31:03,42.805,6.029,-0.031,0.0,-0.055,104.0,102.0,101.0,13.3,1505.2,338.6,-0.8,1.8,2471.379,13.29,0.03,270.0
2023-07-21T06:34:03,42.805,6.029,-0.016,0.007,-0.026,104.0,102.0,101.0,13.4,1505.2,350.9,-0.8,1.8,2471.351,13.29,0.017,293.6
2023-07-21T06:37:03,42.805,6.029,-0.001,-0.015,-0.019,102.0,102.0,101.0,13.4,1505.2,329.2,-0.8,1.8,2471.409,13.29,0.015,183.8
2023-07-21T06:40:03,42.805,6.029,0.007,0.011,-0.005,103.0,101.0,103.0,13.4,1505.2,351.5,-0.8,1.8,2471.368,13.29,0.013,32.5
2023-07-21T06:43:03,42.805,6.029,-0.005,0.009,0.003,102.0,102.0,100.0,13.3,1505.2,343.4,-0.8,1.8,2471.388,13.29,0.01,330.9
2023-07-21T06:46:03,42.805,6.029,-0.013,0.005,-0.052,103.0,101.0,100.0,13.4,1505.2,333.9,-0.7,1.8,2471.424,13.29,0.013,291.0
2023-07-21T06:49:03,42.805,6.029,-0.011,0.01,-0.062,103.0,102.0,100.0,13.3,1505.2,344.7,-0.8,1.8,2471.384,13.29,0.014,312.3
2023-07-21T06:52:03,42.805,6.029,-0.026,0.0,-0.066,101.0,102.0,101.0,13.4,1505.2,342.6,-0.8,1.8,2471.399,13.29,0.026,270.0
2023-07-21T06:55:03,42.805,6.029,-0.007,-0.014,-0.036,102.0,102.0,101.0,13.3,1505.2,344.2,-0.8,1.8,2471.411,13.29,0.015,206.6
2023-07-21T06:58:03,42.805,6.029,0.002,-0.023,-0.037,102.0,101.0,102.0,13.3,1505.2,342.4,-0.8,1.8,2471.428,13.29,0.023,175.0
2023-07-21T07:04:03,42.805,6.029,0.0,-0.001,-0.008,102.0,101.0,102.0,13.4,1505.2,326.8,-0.8,1.8,2471.457,13.29,0.001,180.0
2023-07-21T07:07:03,42.805,6.029,0.008,0.011,0.023,102.0,102.0,101.0,13.4,1505.2,339.3,-0.8,1.8,2471.454,13.29,0.013,36.0
2023-07-21T07:10:03,42.805,6.029,-0.016,0.0,-0.035,103.0,102.0,101.0,13.4,1505.2,330.2,-0.8,1.8,2471.459,13.29,0.016,270.0
2023-07-21T07:13:03,42.805,6.029,-0.019,-0.002,-0.032,103.0,101.0,101.0,13.3,1505.2,342.3,-0.7,1.8,2471.423,13.29,0.019,264.0
2023-07-21T07:16:03,42.805,6.029,-0.015,-0.008,-0.059,102.0,102.0,100.0,13.4,1505.2,343.0,-0.7,1.8,2471.434,13.29,0.017,241.9
2023-07-21T07:19:03,42.805,6.029,-0.01,-0.001,-0.071,102.0,101.0,101.0,13.4,1505.2,338.5,-0.8,1.8,2471.428,13.29,0.01,264.3
2023-07-21T07:22:03,42.805,6.029,-0.019,0.013,0.007,101.0,104.0,100.0,13.4,1505.2,350.1,-0.8,1.8,2471.453,13.29,0.023,304.4
2023-07-21T07:25:03,42.805,6.029,-0.022,0.002,-0.047,102.0,101.0,102.0,13.3,1505.2,335.1,-0.8,1.8,2471.429,13.29,0.022,275.2
2023-07-21T07:28:03,42.805,6.029,-0.035,0.018,-0.014,102.0,102.0,101.0,13.4,1505.2,326.3,-0.8,1.8,2471.39,13.29,0.039,297.2
2023-07-21T07:31:03,42.805,6.029,-0.009,-0.006,-0.032,104.0,100.0,103.0,13.3,1505.2,329.9,-0.7,1.8,2471.393,13.29,0.01,236.3
2023-07-21T07:34:03,42.805,6.029,-0.006,-0.001,-0.039,103.0,103.0,100.0,13.4,1505.2,348.9,-0.8,1.8,2471.406,13.29,0.006,260.5
2023-07-21T07:37:03,42.805,6.029,0.007,-0.027,-0.039,102.0,103.0,101.0,13.4,1505.2,326.5,-0.8,1.8,2471.452,13.29,0.027,165.5
2023-07-21T07:40:03,42.805,6.029,0.007,0.005,-0.014,102.0,101.0,101.0,13.3,1505.2,337.2,-0.7,1.8,2471.427,13.29,0.008,54.5
2023-07-21T07:43:03,42.805,6.029,0.007,-0.018,-0.054,102.0,101.0,102.0,13.4,1505.2,325.4,-0.7,1.8,2471.436,13.29,0.019,158.8
2023-07-21T07:46:03,42.805,6.029,-0.034,-0.003,-0.04,102.0,102.0,101.0,13.4,1505.2,348.9,-0.8,1.8,2471.426,13.29,0.034,265.0
2023-07-21T07:49:03,42.805,6.029,-0.001,-0.011,-0.061,102.0,103.0,101.0,13.4,1505.2,324.2,-0.7,1.8,2471.445,13.29,0.011,185.2
2023-07-21T07:52:03,42.805,6.029,-0.005,-0.017,-0.062,103.0,101.0,102.0,13.4,1505.2,352.8,-0.7,1.8,2471.435,13.29,0.017,196.4
2023-07-21T07:55:03,42.805,6.029,-0.006,0.007,-0.018,103.0,101.0,101.0,13.4,1505.2,323.4,-0.8,1.8,2471.429,13.29,0.009,319.4
2023-07-21T07:58:03,42.805,6.029,0.016,-0.025,-0.023,102.0,102.0,101.0,13.4,1505.2,338.9,-0.8,1.8,2471.439,13.29,0.029,147.4
2023-07-21T08:04:03,42.805,6.029,-0.03,0.007,0.004,102.0,102.0,101.0,13.4,1505.2,327.5,-0.8,1.8,2471.478,13.29,0.03,283.1
2023-07-21T08:07:03,42.805,6.029,-0.004,-0.007,-0.015,100.0,102.0,101.0,13.4,1505.2,327.9,-0.8,1.8,2471.47,13.29,0.008,209.7
2023-07-21T08:10:03,42.805,6.029,-0.012,-0.001,-0.033,102.0,102.0,101.0,13.4,1505.2,344.2,-0.8,1.8,2471.464,13.29,0.012,265.2
2023-07-21T08:13:03,42.805,6.029,-0.017,-0.001,-0.039,102.0,101.0,101.0,13.3,1505.2,325.0,-0.8,1.8,2471.437,13.29,0.017,266.6
2023-07-21T08:16:03,42.805,6.029,-0.012,-0.013,-0.048,102.0,102.0,101.0,13.3,1505.2,341.9,-0.8,1.8,2471.435,13.29,0.017,222.7
2023-07-21T08:19:03,42.805,6.029,-0.002,-0.004,-0.016,102.0,103.0,102.0,13.4,1505.2,343.4,-0.7,1.8,2471.457,13.29,0.004,206.6
2023-07-21T08:22:03,42.805,6.029,-0.019,0.0,-0.02,103.0,103.0,101.0,13.4,1505.2,332.4,-0.7,1.8,2471.458,13.29,0.019,270.0
2023-07-21T08:25:03,42.805,6.029,-0.004,-0.021,-0.049,102.0,102.0,101.0,13.4,1505.2,327.3,-0.8,1.8,2471.445,13.29,0.021,190.8
2023-07-21T08:28:03,42.805,6.029,-0.023,-0.015,-0.028,102.0,102.0,101.0,13.4,1505.2,329.2,-0.8,1.8,2471.456,13.29,0.027,236.9
2023-07-21T08:31:03,42.805,6.029,-0.004,-0.004,-0.033,102.0,102.0,101.0,13.4,1505.2,323.9,-0.8,1.8,2471.454,13.29,0.005,225.0
2023-07-21T08:34:03,42.805,6.029,0.001,-0.004,-0.042,102.0,101.0,101.0,13.4,1505.2,341.5,-0.8,1.8,2471.476,13.29,0.004,166.0
2023-07-21T08:37:03,42.805,6.029,0.004,-0.009,0.0,100.0,101.0,101.0,13.3,1505.2,329.2,-0.8,1.8,2471.465,13.29,0.009,156.0
2023-07-21T08:40:03,42.805,6.029,-0.018,0.006,-0.03,102.0,103.0,100.0,13.3,1505.2,338.2,-0.8,1.8,2471.448,13.29,0.018,288.4
2023-07-21T08:43:03,42.805,6.029,-0.021,-0.011,-0.041,100.0,102.0,102.0,13.3,1505.2,341.9,-0.7,1.8,2471.423,13.29,0.023,242.4
2023-07-21T08:46:03,42.805,6.029,-0.016,-0.008,-0.057,102.0,101.0,102.0,13.4,1505.2,343.8,-0.8,1.8,2471.437,13.29,0.017,243.4
2023-07-21T08:49:03,42.805,6.029,-0.02,-0.003,-0.011,103.0,101.0,101.0,13.3,1505.2,339.3,-0.8,1.8,2471.436,13.29,0.02,261.5
2023-07-21T08:52:03,42.805,6.029,-0.001,-0.044,-0.086,103.0,101.0,101.0,13.3,1505.2,341.2,-0.8,1.8,2471.474,13.29,0.044,181.3
2023-07-21T08:55:03,42.805,6.029,0.001,0.011,-0.032,101.0,102.0,100.0,13.4,1505.2,332.9,-0.8,1.8,2471.421,13.29,0.011,5.2
2023-07-21T08:58:03,42.805,6.029,-0.023,0.01,-0.036,102.0,101.0,101.0,13.3,1505.2,343.0,-0.8,1.8,2471.431,13.29,0.025,293.5
2023-07-21T09:04:03,42.805,6.029,0.008,0.013,0.0,103.0,101.0,101.0,13.4,1505.2,321.6,-0.8,1.8,2471.504,13.29,0.015,31.6
2023-07-21T09:07:03,42.805,6.029,0.006,0.005,-0.018,103.0,101.0,101.0,13.3,1505.2,335.1,-0.8,1.8,2471.439,13.29,0.007,50.2
2023-07-21T09:10:03,42.805,6.029,0.0,-0.013,-0.012,102.0,102.0,102.0,13.4,1505.2,344.2,-0.8,1.8,2471.496,13.29,0.013,180.0
2023-07-21T09:13:03,42.805,6.029,-0.005,-0.013,-0.034,102.0,102.0,101.0,13.4,1505.2,333.4,-0.8,1.8,2471.483,13.29,0.013,201.0
2023-07-21T09:16:03,42.805,6.029,-0.021,-0.004,-0.05,102.0,102.0,101.0,13.3,1505.2,341.5,-0.8,1.8,2471.46,13.29,0.021,259.2
2023-07-21T09:19:03,42.805,6.029,-0.004,-0.004,-0.008,104.0,102.0,100.0,13.4,1505.2,340.4,-0.8,1.8,2471.442,13.29,0.005,225.0
2023-07-21T09:22:03,42.805,6.029,-0.019,0.0,-0.039,102.0,102.0,101.0,13.3,1505.2,338.2,-0.8,1.8,2471.445,13.29,0.019,270.0
2023-07-21T09:25:03,42.805,6.029,-0.015,0.008,-0.015,102.0,102.0,102.0,13.4,1505.2,345.1,-0.8,1.8,2471.432,13.29,0.017,298.1
2023-07-21T09:28:03,42.805,6.029,-0.031,-0.018,-0.076,102.0,102.0,102.0,13.3,1505.2,331.6,-0.8,1.8,2471.457,13.29,0.035,239.9
2023-07-21T09:31:03,42.805,6.029,-0.01,-0.013,-0.05,102.0,102.0,101.0,13.3,1505.2,337.8,-0.8,1.8,2471.471,13.29,0.016,217.6
2023-07-21T09:34:03,42.805,6.029,-0.006,-0.01,-0.049,102.0,101.0,101.0,13.4,1505.2,332.5,-0.8,1.8,2471.43,13.29,0.011,211.0
2023-07-21T09:37:03,42.805,6.029,-0.036,0.022,-0.049,102.0,102.0,101.0,13.3,1505.2,342.3,-0.8,1.8,2471.419,13.29,0.042,301.4
2023-07-21T09:40:03,42.805,6.029,-0.016,0.022,-0.028,103.0,102.0,101.0,13.4,1505.2,352.6,-0.8,1.8,2471.431,13.29,0.027,324.0
2023-07-21T09:43:03,42.805,6.029,-0.009,-0.015,-0.059,103.0,103.0,101.0,13.4,1505.2,322.3,-0.7,1.8,2471.429,13.29,0.017,211.0
2023-07-21T09:46:03,42.805,6.029,0.003,-0.012,-0.009,103.0,103.0,101.0,13.4,1505.2,327.7,-0.7,1.8,2471.486,13.29,0.012,166.0
2023-07-21T09:49:03,42.805,6.029,-0.007,-0.016,-0.038,102.0,102.0,104.0,13.4,1505.2,340.3,-0.8,1.8,2471.45,13.29,0.017,203.6
2023-07-21T09:52:03,42.805,6.029,-0.015,-0.017,-0.084,101.0,102.0,101.0,13.3,1505.2,341.5,-0.7,1.8,2471.421,13.29,0.022,221.4